TimeEST,TemperatureF,Dew PointF,Humidity,Sea Level PressureIn,VisibilityMPH,Wind Direction,Wind SpeedMPH,Gust SpeedMPH,PrecipitationIn,Events,Conditions,WindDirDegrees,DateUTC
12:53 AM,73.0,71.1,93,30.17,10.0,NNW,3.5,-,N/A,,Mostly Cloudy,340,2013-12-12 05:53:00
1:53 AM,73.0,71.1,93,30.17,10.0,Calm,Calm,-,N/A,,Overcast,0,2013-12-12 06:53:00
2:53 AM,73.0,71.1,93,30.16,10.0,Calm,Calm,-,N/A,,Overcast,0,2013-12-12 07:53:00
3:53 AM,72.0,70.0,93,30.15,10.0,NNE,3.5,-,N/A,,Scattered Clouds,20,2013-12-12 08:53:00
4:53 AM,70.0,69.1,97,30.15,9.0,ENE,3.5,-,N/A,,Clear,60,2013-12-12 09:53:00
5:53 AM,69.1,68.0,96,30.16,9.0,NNE,3.5,-,N/A,,Clear,20,2013-12-12 10:53:00
6:53 AM,69.1,68.0,96,30.18,7.0,North,4.6,-,N/A,,Clear,10,2013-12-12 11:53:00
7:53 AM,70.0,68.0,93,30.21,7.0,NNE,5.8,-,N/A,,Partly Cloudy,20,2013-12-12 12:53:00
8:53 AM,72.0,69.1,91,30.22,7.0,NE,10.4,-,N/A,,Mostly Cloudy,40,2013-12-12 13:53:00
9:53 AM,70.0,68.0,93,30.25,6.0,NNE,8.1,-,N/A,,Overcast,30,2013-12-12 14:53:00
10:36 AM,71.6,69.8,94,30.24,10.0,NNE,9.2,-,N/A,,Overcast,20,2013-12-12 15:36:00
10:53 AM,73.9,69.1,85,30.24,10.0,NNE,8.1,-,N/A,,Overcast,30,2013-12-12 15:53:00
11:42 AM,73.4,68.0,83,30.22,10.0,NE,9.2,-,N/A,,Mostly Cloudy,40,2013-12-12 16:42:00
11:53 AM,73.9,68.0,82,30.22,10.0,ENE,10.4,-,N/A,,Mostly Cloudy,60,2013-12-12 16:53:00
12:39 PM,73.4,68.0,83,30.19,10.0,NE,10.4,-,N/A,,Mostly Cloudy,40,2013-12-12 17:39:00
12:53 PM,75.9,68.0,76,30.18,10.0,NE,11.5,-,N/A,,Mostly Cloudy,40,2013-12-12 17:53:00
1:21 PM,73.4,66.2,78,30.17,10.0,NNE,11.5,-,N/A,,Mostly Cloudy,30,2013-12-12 18:21:00
1:53 PM,72.0,66.9,84,30.16,10.0,NNE,12.7,-,N/A,,Overcast,30,2013-12-12 18:53:00
2:53 PM,70.0,66.0,87,30.16,8.0,NE,15.0,19.6,N/A,,Overcast,40,2013-12-12 19:53:00
3:53 PM,71.1,66.0,84,30.15,10.0,NE,11.5,-,N/A,,Overcast,50,2013-12-12 20:53:00
4:00 PM,71.6,66.2,83,30.15,10.0,NNE,10.4,-,N/A,,Overcast,30,2013-12-12 21:00:00
4:37 PM,71.6,64.4,78,30.17,10.0,NE,12.7,-,N/A,,Mostly Cloudy,40,2013-12-12 21:37:00
4:53 PM,70.0,64.0,81,30.17,9.0,NE,12.7,-,N/A,,Mostly Cloudy,50,2013-12-12 21:53:00
5:21 PM,69.8,64.4,83,30.17,4.0,NE,9.2,-,N/A,,Haze,40,2013-12-12 22:21:00
5:53 PM,69.1,63.0,81,30.17,4.0,NE,6.9,-,N/A,,Smoke,40,2013-12-12 22:53:00
6:53 PM,68.0,60.1,76,30.19,6.0,NE,8.1,-,N/A,,Smoke,40,2013-12-12 23:53:00
7:53 PM,66.0,51.1,59,30.21,10.0,NE,13.8,20.7,N/A,,Clear,40,2013-12-13 00:53:00
8:53 PM,64.0,48.0,56,30.22,10.0,NNE,11.5,19.6,N/A,,Clear,30,2013-12-13 01:53:00
9:53 PM,63.0,48.0,58,30.22,10.0,NE,12.7,-,N/A,,Clear,40,2013-12-13 02:53:00
10:53 PM,61.0,46.9,60,30.22,10.0,NE,11.5,-,N/A,,Clear,40,2013-12-13 03:53:00
11:53 PM,60.1,46.9,62,30.21,10.0,NNE,10.4,23.0,N/A,,Clear,30,2013-12-13 04:53:00